Location: Newark
(59.4564°N, 26.6917°E)
Time: 08:19:28
(UTC+00:00)

S-56A Canister/Altair - Pass Details

Date: 18 November 2019
Orbit: 633 x 2500 km, 38.9° (Epoch: 09 December)

Event Time Altitude Azimuth Distance (km) Brightness Sun altitude
Rises 18:06:03 0° 238° (WSW) 4,192 11.8 -32.5°
Enters shadow 18:12:08 10° 202° (SSW) 2,743 10.4 -33.3°
Maximum altitude 18:13:09 10° 193° (SSW) 2,634 - -33.4°
Drops below altitude 10° 18:13:12 10° 193° (SSW) 2,630 - -33.4°
Sets 18:18:51 0° 144° (SE) 3,167 - -34.1°
